Location: Fort Worth, Tx
(32.7431°N, 97.3695°W)
Time: 01:28:08
(UTC-04:00)

Vanguard 2 - Pass Details

Date: 25 February 2024
Orbit: 552 x 2916 km, 32.9° (Epoch: 24 April)

Event Time Altitude Azimuth Distance (km) Brightness Sun altitude
Rises 00:38:47 0° 280° (W) 5,681 12.2 -62.3°
Reaches altitude 10° 00:42:04 10° 280° (W) 4,926 11.8 -62.7°
Enters shadow 00:46:25 26° 278° (W) 4,024 11.1 -63.2°
